Flag for Germany Weather past 2 weeks in Schleswig, Schleswig-Holstein, Germany

Now
47 °F

Passing clouds.


Feels Like: 46 °F
Forecast: 46 / 58 °F
Wind: 3 mph from Southwest

Location: Schleswig

Current Time: May 30, 2015 at 11:37:11 PM

Latest Report: May 30, 2015 at 10:00 PM


Visibility: 25 mi

Pressure: 29.90 "Hg

Humidity: 85%

Dew point: 43 °F

Location of SchleswigLocation

Historic Weather in Schleswig — Graph

°F

Schleswig temperature yesterday

Maximum temperature yesterday: 58 °F (at 12:00 PM)
Minimum temperature yesterday: 43 °F (at 4:00 AM)
Average temperature yesterday: 50 °F

Past Weeks' High & Low Weather Summary

 TemperatureHumidityPressure
High65 °F (May 22, 2:00 PM)99% (May 25, 7:00 AM)30.28 "Hg (May 25, 7:00 AM)
Low40 °F (May 24, 6:00 AM)51% (May 17, 3:00 PM)29.50 "Hg (May 19, 1:00 AM)
Average51 °F79%29.97 "Hg
* Reported May 15 10:00 PM — May 30 10:00 PM, Schleswig, Weather by CustomWeather, © 2015

Note: Actual official high and low records may vary slightly from our data, if they occured in-between our weather recording intervals... More about our weather records

Advertising

Schleswig weather history for previous 24 hours

 ConditionsComfort  
Time TempWeatherWind HumidityBarometerVisibility
10:00 PM
Sat, May 30
47 °FPassing clouds.3 mph85%29.90 "Hg25 mi
9:00 PM50 °FSprinkles. Scattered clouds.5 mph78%29.89 "Hg16 mi
8:00 PM51 °FScattered clouds.8 mph69%29.88 "Hg22 mi
7:00 PM54 °FPassing clouds.8 mph62%29.87 "Hg22 mi
6:00 PM52 °FSprinkles. Partly sunny.7 mph77%29.85 "Hg25 mi
5:00 PM55 °FPartly sunny.7 mph67%29.83 "Hg28 mi
4:00 PM54 °FPartly sunny.8 mph64%29.81 "Hg25 mi
3:00 PM53 °FPartly sunny.8 mph70%29.79 "Hg22 mi
2:00 PM54 °FScattered clouds.7 mph63%29.77 "Hg22 mi
1:00 PM58 °FScattered clouds.8 mph63%29.75 "Hg22 mi
12:00 PM55 °FScattered clouds.9 mph62%29.74 "Hg22 mi
11:00 AM53 °FScattered clouds.7 mph81%29.73 "Hg22 mi
10:00 AM49 °FOvercast.7 mph93%29.71 "Hg22 mi
9:00 AM51 °FPartly sunny.6 mph81%29.68 "Hg22 mi
8:00 AM47 °FOvercast.7 mph90%29.66 "Hg19 mi
7:00 AM46 °FSprinkles. Overcast.6 mph93%29.64 "Hg19 mi
6:00 AM46 °FSprinkles. Overcast.3 mph93%29.62 "Hg6 mi
5:00 AM46 °FLight rain. Overcast.7 mph94%29.58 "Hg25 mi
4:00 AM47 °FOvercast.7 mph91%29.56 "Hg22 mi
3:00 AM48 °FLight rain. Overcast.9 mph93%29.55 "Hg9 mi
2:00 AM49 °FLight rain. Overcast.6 mph91%29.56 "Hg9 mi
1:00 AM49 °FOvercast.7 mph93%29.57 "Hg4 mi
12:00 AM49 °FLight rain. Overcast.3 mph97%29.59 "Hg2 mi
Weather by CustomWeather, © 2015

See weather overviewHow to use our weather pages